Volver al catálogo

STARLINK-36673

ActivoComunicacionesSSO
NORAD 67660·PAYLOAD·🇺🇸 United States

Lanzado Feb 2, 2026 desde Vandenberg Space Force Base

Loading…

Próximos Pases (próximas 24 horas)

TLE

ActualizadoSource: CelesTrak SupGP

Época: Sep 15, 2026, 03:50 UTC

1 67660C 26022N   26258.16020833 -.00045471  00000+0 -14115-2 0  2587
2 67660  97.2841 289.8132 0001491  88.3064 131.3084 15.33462600    16

Sigue STARLINK-36673 en tiempo real con AllMySat

Download on the App Store